Tracking 17921 objects as of 17-January-2017
HD Live streaming from Space Station
objects crossing your sky now

SCOUT B-1 R/B

Track SCOUT B-1 R/B now!
10-day predictions


NORAD ID: 5438
Int'l Code: 1971-071B
Perigee: 632.3 km
Apogee: 785.0 km
Inclination: 50.1 °
Period: 98.8 minutes
Semi major axis: 7079 km
RCS: 0.747 m2 (medium)
Launch date: August 16, 1971
Source: United States (US)
Launch site: WALLOPS ISLAND (WLPIS)

Note: This is a ROCKET BODY
Your satellite tracking list
Your tracking list is empty





NASA's NSSDC Master Catalog

Two Line Element Set (TLE):
1 05438U 71071B   17016.19058075 -.00000080  00000-0  25673-4 0  9992
2 05438  50.1479  21.2748 0107855  14.6651 345.7367 14.57431404397558
Source of the keplerian elements: AFSPC